FW8630 Weather Reports


Display with metric or nautical units.
time (UTC)temp
F
wind
direction
speed
MPH
gust
MPH
rain 1hr
in
rain 24hr
in
rain mn
in
humidity
%
barometer
mb
20240518221540 50 184 0.0 0.0 0.00 0.00 0.00 65 1017.7
20240518220038 50 184 0.0 2.0 0.00 0.00 0.00 65 1017.7
20240518214537 51 185 1.0 3.0 0.00 0.00 0.00 64 1018.0
20240518213039 52 186 0.0 3.0 0.00 0.00 0.00 62 1017.8
20240518211535 53 194 0.0 0.0 0.00 0.00 0.00 61 1017.9
20240518210035 54 194 0.0 0.0 0.00 0.00 0.00 59 1017.9
20240518204536 55 194 0.0 2.0 0.00 0.00 0.00 56 1017.9
20240518203043 56 194 0.0 0.0 0.00 0.00 0.00 54 1017.9
20240518201533 57 194 0.0 0.0 0.00 0.00 0.00 56 1017.9
20240518200033 58 194 0.0 2.0 0.00 0.00 0.00 53 1017.8
20240518194533 60 194 0.0 0.0 0.00 0.00 0.00 49 1017.7
20240518193038 61 194 0.0 1.0 0.00 0.00 0.00 47 1017.7
20240518191543 61 194 0.0 2.0 0.00 0.00 0.00 49 1017.7
20240518190035 61 194 0.0 1.0 0.00 0.00 0.00 59 1017.8
20240518184529 61 195 0.0 0.0 0.00 0.00 0.00 58 1017.7
20240518183028 62 195 0.0 0.0 0.00 0.00 0.00 59 1017.6
20240518181527 62 195 0.0 1.0 0.00 0.00 0.00 59 1017.6
20240518180028 61 195 0.0 1.0 0.00 0.00 0.00 60 1017.6
20240518174531 60 195 0.0 2.0 0.00 0.00 0.00 60 1017.6
20240518173026 61 195 0.0 2.0 0.00 0.00 0.00 60 1017.6
20240518171531 61 195 0.0 3.0 0.00 0.00 0.00 59 1017.6
20240518170024 62 196 2.0 5.0 0.00 0.00 0.00 59 1017.7
20240518164523 64 200 0.0 4.0 0.00 0.00 0.00 57 1017.8
20240518163024 64 205 0.0 5.0 0.00 0.00 0.00 56 1017.8
20240518161523 66 190 2.0 6.0 0.00 0.00 0.00 53 1017.9
20240518160029 68 248 1.0 2.0 0.00 0.00 0.00 50 1018.0
20240518154518 68 264 0.0 2.0 0.00 0.00 0.00 50 1018.1
20240518153017 68 266 1.0 3.0 0.00 0.00 0.00 50 1018.3
20240518151516 67 269 1.0 4.0 0.00 0.00 0.00 50 1018.5
20240518150015 67 219 2.0 7.0 0.00 0.00 0.00 50 1018.6
20240518144516 67 270 1.0 6.0 0.00 0.00 0.00 49 1018.8
20240518143023 64 263 1.0 7.0 0.00 0.00 0.00 54 1018.9
20240518141510 65 271 3.0 8.0 0.00 0.00 0.00 52 1019.0
20240518140114 67 264 2.0 7.0 0.00 0.00 0.00 51 1019.2
20240518134507 66 279 2.0 6.0 0.00 0.00 0.00 51 1019.4
20240518133006 67 267 2.0 9.0 0.00 0.00 0.00 48 1019.4
20240518131505 68 236 3.0 10.0 0.00 0.00 0.00 46 1019.4
20240518130013 70 285 1.0 7.0 0.00 0.00 0.00 40 1019.5
20240518124503 70 289 2.0 8.0 0.00 0.00 0.00 43 1019.6
20240518123002 68 292 3.0 10.0 0.00 0.00 0.00 43 1019.7
20240518121700 67 303 4.0 10.0 0.00 0.00 0.00 45 1019.8
20240518120059 68 292 3.0 9.0 0.00 0.00 0.00 47 1019.9
20240518114557 67 257 2.0 7.0 0.00 0.00 0.00 48 1020.1
20240518113101 67 284 3.0 7.0 0.00 0.00 0.00 47 1020.0
20240518111557 67 284 3.0 11.0 0.00 0.00 0.00 47 1019.9
20240518110110 69 270 3.0 7.0 0.00 0.00 0.00 46 1019.9
20240518104601 74 123 2.0 6.0 0.00 0.00 0.00 32 1020.0
20240518103051 73 65 2.0 9.0 0.00 0.00 0.00 33 1020.0
20240518101552 73 95 3.0 12.0 0.00 0.00 0.00 35 1020.1
20240518100047 73 101 7.0 11.0 0.00 0.00 0.00 34 1020.3
20240518094546 72 113 2.0 9.0 0.00 0.00 0.00 35 1020.3
20240518093048 72 86 4.0 10.0 0.00 0.00 0.00 34 1020.5
20240518091547 73 26 5.0 9.0 0.00 0.00 0.00 34 1020.5
20240518090036 72 124 3.0 10.0 0.00 0.00 0.00 34 1020.5
20240518084533 72 106 5.0 9.0 0.00 0.00 0.00 33 1020.5
20240518083028 71 123 4.0 9.0 0.00 0.00 0.00 33 1020.6
20240518081524 71 142 4.0 8.0 0.00 0.00 0.00 34 1020.6
20240518080022 70 108 5.0 10.0 0.00 0.00 0.00 34 1020.6
20240518074516 70 175 1.0 10.0 0.00 0.00 0.00 37 1020.6
20240518073017 69 117 2.0 10.0 0.00 0.00 0.00 37 1020.7
20240518071513 69 89 4.0 9.0 0.00 0.00 0.00 38 1020.7
20240518070003 68 79 4.0 9.0 0.00 0.00 0.00 41 1020.7
20240518064606 67 65 4.0 9.0 0.00 0.00 0.00 44 1020.6
20240518063057 65 76 5.0 9.0 0.00 0.00 0.00 49 1020.7
20240518061553 64 56 2.0 8.0 0.00 0.00 0.00 52 1020.7
20240518060045 62 47 4.0 10.0 0.00 0.00 0.00 53 1020.8
20240518054542 61 62 4.0 10.0 0.00 0.00 0.00 54 1020.8
20240518053036 60 88 4.0 10.0 0.00 0.00 0.00 55 1020.7
20240518051533 59 117 4.0 10.0 0.00 0.00 0.00 57 1020.8
20240518050028 58 87 3.0 9.0 0.00 0.00 0.00 58 1020.8
20240518044524 56 57 3.0 9.0 0.00 0.00 0.00 59 1020.8
20240518043019 55 96 4.0 9.0 0.00 0.00 0.00 60 1020.9
20240518041520 54 115 3.0 8.0 0.00 0.00 0.00 61 1020.9
20240518040017 53 57 3.0 6.0 0.00 0.00 0.00 62 1020.9
20240518034519 53 63 3.0 6.0 0.00 0.00 0.00 63 1020.9
20240518033001 52 59 2.0 5.0 0.00 0.00 0.00 64 1020.9
20240518031558 51 59 3.0 7.0 0.00 0.00 0.00 65 1020.9
20240518030055 51 81 3.0 8.0 0.00 0.00 0.00 65 1020.9
20240518024553 51 55 3.0 8.0 0.00 0.00 0.00 65 1020.9
20240518023051 51 71 2.0 5.0 0.00 0.00 0.00 65 1021.0
20240518014542 51 80 3.0 6.0 0.00 0.00 0.00 64 1021.1
20240518013101 51 67 4.0 10.0 0.00 0.00 0.00 64 1021.2
20240518011539 52 74 3.0 9.0 0.00 0.00 0.00 63 1021.2
20240518010036 52 69 3.0 6.0 0.00 0.00 0.00 62 1021.3
20240518004535 52 65 4.0 9.0 0.00 0.00 0.00 62 1021.4
20240518003033 52 72 3.0 9.0 0.00 0.00 0.00 62 1021.4
20240518001530 51 72 3.0 9.0 0.00 0.00 0.00 61 1021.5
20240517233019 51 72 4.0 9.0 0.00 0.00 0.00 62 1021.6
20240517231516 51 56 3.0 10.0 0.00 0.00 0.00 61 1021.6
20240517230014 51 49 3.0 9.0 0.00 0.00 0.00 62 1021.7
20240517224511 51 53 2.0 5.0 0.00 0.00 0.00 62 1021.8
20240517223012 51 61 2.0 6.0 0.00 0.00 0.00 61 1021.9